Hauptseite
METAR-TAF:

METAR-TAF

Flughäfen :

Diepholz, Deutschland

Fliegerhorst Diepholz

Breite: 52-35N, Länge: 008-21E, Höhe: 39 m

Beobachtung

Neuester Wetterbericht von vor 5 Stunden und 57 Minuten, um 14:20 UTC
Wind 1 kt aus Ost/Nordost
Temperatur 3°C
Luftfeuchtigkeit 87%
Luftdruck 1025 hPa
Sichtweite 10 km oder mehr
Durchbrochene Bewölkung in der Höhe von 2300 ft

METAR: ETND 181420Z 06001KT 9999 BKN023 03/01 Q1025 WHT

Zeit: 21:17 (20:17 UTC)


TAF: fehlend

Wetterbeobachtungen und Prognosen von mehr als 4000 Flughäfen (METAR und TAF Bericht).

Die verfügbaren Stationen werden durch gelbe und rote Markierungen auf der Karte dargestellt.

Führen Sie die Maus auf sie, um den Namen der Station zu sehen.

Darauf klicken, um die Beobachtung von Wetterbeobachtungen und Prognosen zu sehen.

Um die Karte zu ändern : klicken Sie auf den grünen Tasten mit einem schwarzen Kreuz Zum Vergrößern, auf den grünen Button mit einem Gedankenstrich zu verkleinern, oder auf die grünen Pfeile für benachbarte Karten.


METAR-TAF: